Regional Weather Roundup
Issued by NWS

Home | Current Version | Previous Version | Text Only | Print | Product List | Glossary Off
Versions: 1 2 3 4 5 6 7 8 9 10 11 12 13 14 15 16 17 18 19 20 21 22 23 24 25 26 27 28 29 30 31 32 33 34 35 36 37 38 39 40 41 42 43 44 45 46 47 48 49 50

524
ASUS43 KDTX 160010
RWRMI
MICHIGAN HOURLY REGIONAL WEATHER ROUNDUP
NATIONAL WEATHER SERVICE DETROIT/PONTIAC MI
700 PM EST FRI DEC 15 2017

NOTE: "FAIR" INDICATES FEW OR NO CLOUDS BELOW 12,000 FEET WITH NO
SIGNIFICANT WEATHER AND/OR OBSTRUCTION TO VISIBILITY.

MIZ047>049-052>055-059>063-066>070-074>076-081>083-160100-
SOUTHEAST LOWER MICHIGAN

CITY           SKY/WX    TMP DP  RH WIND       PRES   REMARKS
ALMA           FLURRIES  22  19  87 W5        29.84R WCI  16
6HR MIN TEMP:  22; 6HR MAX TEMP:  25;

ANN ARBOR      CLOUDY    24  16  71 SW12      29.87R WCI  13
BAD AXE        MOCLDY    20  12  71 W12       29.78S WCI   8
6HR MIN TEMP:  20; 6HR MAX TEMP:  24;

CARO           CLEAR     22  10  59 W15       29.80S WCI   8
DETROIT CITY   LGT SNOW  26  20  77 W9        29.87R WCI  17
6HR MIN TEMP:  24; 6HR MAX TEMP:  26; 6HR PCP: TRACE;

DETROIT        CLOUDY    29  17  61 SW15      29.89R WCI  18
6HR MIN TEMP:  28; 6HR MAX TEMP:  30; 6HR PCP:  0.01;

FLINT          CLOUDY    22  16  78 W10       29.84R WCI  11
6HR MIN TEMP:  22; 6HR MAX TEMP:  24; 6HR PCP: TRACE;

GROSSE ILE     CLOUDY    27  17  65 W15G21    29.88R WCI  15
6HR MIN TEMP:  26; 6HR MAX TEMP:  28;

HILLSDALE      FLURRIES  27  18  69 W7        29.86R WCI  19
HOWELL         FLURRIES  24  20  86 W8        29.84R WCI  15
6HR MIN TEMP:  24; 6HR MAX TEMP:  26;


CITY           SKY/WX    TMP DP  RH WIND       PRES   REMARKS
JACKSON        CLOUDY    25  15  66 SW8       29.86R WCI  16
6HR MIN TEMP:  23; 6HR MAX TEMP:  27; 6HR PCP: TRACE;

LAMBERTVILLE   MOCLDY    26  17  69 SW8       29.91R WCI  17
6HR MIN TEMP:  25; 6HR MAX TEMP:  27;

LANSING        CLOUDY    24  18  77 W7        29.86R WCI  16
6HR MIN TEMP:  23; 6HR MAX TEMP:  25; 6HR PCP: TRACE;

LAPEER         CLOUDY    23  17  79 W6        29.82R WCI  15
6HR MIN TEMP:  22; 6HR MAX TEMP:  25;

MASON          MOCLDY    26  13  59 W8        29.85R WCI  17
MONROE         CLOUDY    27  15  60 SW10      29.89R WCI  17
6HR MIN TEMP:  25; 6HR MAX TEMP:  27;

MT. CLEMENS    FLURRIES  24  24  99 W9        29.83R WCI  14
6HR MIN TEMP:  24; 6HR MAX TEMP:  26; 6HR PCP:  0.02;

PONTIAC        LGT SNOW  24  20  84 W10       29.83R FOG     WCI  14
6HR MIN TEMP:  22; 6HR MAX TEMP:  24; 6HR PCP: TRACE;

PORT HOPE        N/A     24  15  68 W9G20     29.74R WCI  14
6HR MIN TEMP:  23; 6HR MAX TEMP:  25;

PORT HURON     CLOUDY    23  18  80 W6        29.84R WCI  16
TRI CITIES     CLOUDY    23  15  71 W14       29.83R WCI  11
6HR MIN TEMP:  23; 6HR MAX TEMP:  25; 6HR PCP: TRACE;

MIDLAND        CLOUDY    24  14  66 W9G16     29.82R WCI  14
6HR MIN TEMP:  24; 6HR MAX TEMP:  27;

TROY           FLURRIES  27  21  80 SW10G16   29.87R WCI  17
SAGINAW HB     CLOUDY    23  14  68 W9        29.83R WCI  13
$$
MIZ043>046-050>051-056>058-064>065-071>073-077>080-160100-
SOUTHWEST LOWER MICHIGAN

CITY           SKY/WX    TMP DP  RH WIND       PRES   REMARKS
BATTLE CREEK   CLOUDY    26  18  71 W9        29.87S WCI  17
6HR MIN TEMP:  25; 6HR MAX TEMP:  27; 6HR PCP: TRACE;

BENTON HARBOR  CLOUDY    33  25  72 W21G31    29.90R WCI  21
6HR MIN TEMP:  28; 6HR MAX TEMP:  33; 6HR PCP: TRACE;

BIG RAPIDS     LGT SNOW  20  17  87 CALM      29.81R
6HR MIN TEMP:  20; 6HR MAX TEMP:  22;

COLDWATER      CLOUDY    27  19  71 SW6       29.89R WCI  20
6HR MIN TEMP:  25; 6HR MAX TEMP:  27;

HOLLAND        CLOUDY    32  20  61 W16G26    29.86S WCI  21
6HR MIN TEMP:  27; 6HR MAX TEMP:  32; 6HR PCP: TRACE;

GRAND RAPIDS   MOCLDY    26  16  65 W9        29.85R WCI  17
6HR MIN TEMP:  25; 6HR MAX TEMP:  27; 6HR PCP: TRACE;

IONIA          MOCLDY    24  15  67 W7        29.84R WCI  16
6HR MIN TEMP:  24; 6HR MAX TEMP:  26;

KALAMAZOO      CLOUDY    27  20  75 SW6       29.87S WCI  20
6HR MIN TEMP:  26; 6HR MAX TEMP:  28; 6HR PCP: TRACE;

LUDINGTON      CLOUDY    24  14  66 NW8       29.83S WCI  15
6HR MIN TEMP:  23; 6HR MAX TEMP:  24;

MARSHALL       CLOUDY    26  17  68 W9        29.86S WCI  16
6HR MIN TEMP:  25; 6HR MAX TEMP:  26;

MOUNT PLEASANT CLOUDY    23  16  75 W6        29.82R WCI  15
6HR MIN TEMP:  22; 6HR MAX TEMP:  26;

MUSKEGON       CLOUDY    29  17  61 W15G23    29.85S WCI  18
6HR MIN TEMP:  27; 6HR MAX TEMP:  29; 6HR PCP: TRACE;

SOUTH HAVEN    CLOUDY    34  23  64 W12G18    29.88S WCI  25
$$
MIZ016>042-160100-
NORTHERN LOWER MICHIGAN

CITY           SKY/WX    TMP DP  RH WIND       PRES   REMARKS
ALPENA         MOCLDY    23  17  78 W8        29.71R WCI  14
6HR MIN TEMP:  22; 6HR MAX TEMP:  27; 6HR PCP: TRACE;

BEAVER ISLAND  CLOUDY    23  10  56 NW10      29.75R WCI  13
6HR MIN TEMP:  23; 6HR MAX TEMP:  26;

BELLAIRE       LGT SNOW  23  19  85 W8        29.76R WCI  14
6HR MIN TEMP:  23; 6HR MAX TEMP:  26;

CADILLAC       LGT SNOW  19  15  86 W9        29.75R WCI   7
CHARLEVOIX     CLOUDY    25  11  57 NW14G24   29.77R WCI  13
6HR MIN TEMP:  24; 6HR MAX TEMP:  27;

FRANKFORT      CLOUDY    25  14  62 W10G17    29.81R WCI  15
GAYLORD        FLURRIES  19  14  81 W8        29.69S WCI   9
6HR MIN TEMP:  19; 6HR MAX TEMP:  23; 6HR PCP:  0.01;

GRAYLING       PTCLDY    18  13  81 SW9       29.73R WCI   7
6HR MIN TEMP:  18; 6HR MAX TEMP:  25;

HARBOR SPRINGS FLURRIES  22  15  73 NW9       29.73R WCI  12
HOUGHTON LAKE  PTCLDY    17  12  80 W9        29.75R WCI   6
6HR MIN TEMP:  17; 6HR MAX TEMP:  22; 6HR PCP: TRACE;

MANISTEE       CLOUDY    22  14  71 W13       29.82R WCI  10
OSCODA         MOCLDY    22  13  69 W13       29.74R WCI   9
6HR MIN TEMP:  22; 6HR MAX TEMP:  25;

PELLSTON       LGT SNOW  22  15  75 NW13      29.73R WCI  10
6HR MIN TEMP:  22; 6HR MAX TEMP:  25; 6HR PCP:  0.01;

ROGERS CITY    MOCLDY    23  16  77 W12G18    29.72R WCI  11
TRAVERSE CITY  LGT SNOW  23  16  74 W6        29.78R WCI  16
6HR MIN TEMP:  22; 6HR MAX TEMP:  25; 6HR PCP:  0.01;

$$
MIZ007>008-015-160100-
EASTERN UPPER MICHIGAN

CITY           SKY/WX    TMP DP  RH WIND       PRES   REMARKS
KINROSS        LGT SNOW  18  15  88 W8        29.70R FOG     WCI   8
6HR MIN TEMP:  18; 6HR MAX TEMP:  27;

MACKINAC ISLAN LGT SNOW  23  16  74 NW14G21   29.71R WCI  10
6HR MIN TEMP:  23; 6HR MAX TEMP:  26;

NEWBERRY       PTCLDY    13  12  97 W6        29.71S WCI   4
6HR MIN TEMP:  13; 6HR MAX TEMP:  23;

S. S. MARIE    LGT SNOW  21  16  81 NW8       29.69R WCI  11
6HR MIN TEMP:  21; 6HR MAX TEMP:  25; 6HR PCP:  0.14;

MUNISING         N/A     20  14  77 W6        29.77R WCI  12
6HR MIN TEMP:  19; 6HR MAX TEMP:  25; 6HR PCP:  0.05;

$$
MIZ004>006-011>014-085-160100-
CENTRAL UPPER MICHIGAN

CITY           SKY/WX    TMP DP  RH WIND       PRES   REMARKS
MANISTIQUE     CLEAR     13   2  62 W5        29.76R WCI   5
6HR MIN TEMP:  11; 6HR MAX TEMP:  24;

ESCANABA       CLEAR     11   5  77 W6        29.80R WCI   1
6HR MIN TEMP:  11; 6HR MAX TEMP:  24; 6HR PCP: TRACE;

MENOMINEE      CLEAR     12   5  73 W5        29.84R WCI   4
6HR MIN TEMP:  12; 6HR MAX TEMP:  25; 6HR PCP: TRACE;

SAWYER-GWINN   FLURRIES  12   9  85 NW6       29.75R WCI   3
$$
MIZ001>003-009>011-084-160100-
WESTERN UPPER MICHIGAN

CITY           SKY/WX    TMP DP  RH WIND       PRES   REMARKS
IRON MOUNTAIN  CLOUDY    14   6  70 W6        29.76R WCI   5
6HR MIN TEMP:  14; 6HR MAX TEMP:  21; 6HR PCP: TRACE;

HOUGHTON       CLOUDY    12   7  80 CALM      29.75R
6HR MIN TEMP:  10; 6HR MAX TEMP:  18; 6HR PCP:  0.01;

COPPER HARBOR    N/A     17   9  70 NE12      29.78S WCI   4
6HR MIN TEMP:  17; 6HR MAX TEMP:  20;

IRONWOOD       PTCLDY    -1  -4  87 CALM      29.78R
6HR MIN TEMP:  -1; 6HR MAX TEMP:  13;

$$

ABBREVIATIONS USED IN REMARKS
   TC - TEMPERATURE IN CELSIUS
  WCI - WIND CHILL INDEX
   HX - HEAT INDEX
  VSB - VISIBILITY





USA.gov is the U.S. government's official web portal to all federal, state and local government web resources and services.